User: anonymous   Login
Location: Unspecified
(0.0000°N, 0.0000°E)
Time: 11:02:52
(UTC+00:00)
Language:

GALASSIA - Orbit

View from above orbital plane
View from above orbital plane
View from above satellite
View from above satellite

Ground track
Ground track

The orbit data is extracted from the following two-line orbital elements,

1 41170U 15077E   17352.18301010  .00002208  00000-0  84336-4 0  9995
2 41170  14.9885 259.9951 0013218  67.3982 292.7736 15.12726260110976
Epoch (UTC): 18 December 2017 04:23:32
Eccentricity: 0.0013218
inclination: 14.9885°
perigee height: 519 km
apogee height: 537 km
right ascension of ascending node: 259.9951°
argument of perigee: 67.3982°
revolutions per day: 15.12726260
mean anomaly at epoch: 292.7736°
orbit number at epoch: 11097

The dashed part of the orbit path shows where the satellite is in the earth's shadow,  

DLR